DW9307 Weather Reports


time (UTC)temp
F
wind
direction
speed
knots
gust
knots
rain 1hr
in
rain 24hr
in
rain mn
in
humidity
%
barometer
mb
20220124103707 28 260 0.0 0.0 0.00 0.22 0.00 93 1013.1
20220124103201 28 260 0.0 0.0 0.00 0.22 0.00 93 1013.0
20220124102655 28 260 0.0 0.9 0.00 0.22 0.00 93 1013.0
20220124102149 29 260 0.0 0.9 0.00 0.22 0.00 94 1012.9
20220124101643 29 260 0.0 0.0 0.00 0.22 0.00 93 1012.6
20220124101137 29 260 0.0 0.9 0.00 0.22 0.00 94 1012.6
20220124100632 29 260 0.0 0.9 0.00 0.22 0.00 94 1012.6
20220124100125 28 260 0.0 0.0 0.00 0.22 0.00 93 1012.5
20220124095621 28 260 0.0 0.0 0.00 0.22 0.00 93 1012.3
20220124095112 28 260 0.0 0.0 0.00 0.22 0.00 93 1012.2
20220124094607 28 260 0.0 0.0 0.00 0.22 0.00 93 1012.2
20220124094101 29 260 0.0 0.0 0.00 0.22 0.00 93 1012.3
20220124093555 29 260 0.0 0.9 0.00 0.22 0.00 93 1012.3
20220124093051 29 260 0.0 0.9 0.00 0.22 0.00 93 1012.3
20220124092544 29 260 0.0 0.9 0.00 0.22 0.00 93 1012.3
20220124092037 28 260 0.0 0.9 0.00 0.22 0.00 93 1012.2
20220124091534 28 260 0.0 0.9 0.00 0.22 0.00 93 1012.2
20220124091028 29 260 0.0 0.9 0.00 0.22 0.00 93 1012.1
20220124090526 29 260 0.0 0.9 0.00 0.22 0.00 93 1012.0
20220124090021 29 260 0.0 0.9 0.00 0.22 0.00 93 1012.0
20220124085510 28 260 0.0 0.9 0.00 0.22 0.00 93 1012.1
20220124085000 29 260 0.0 0.9 0.00 0.22 0.00 93 1012.0
20220124084457 29 260 0.0 0.9 0.00 0.22 0.00 93 1012.1
20220124083949 29 260 0.0 0.0 0.00 0.22 0.00 93 1012.0
20220124083445 29 260 0.0 0.0 0.00 0.22 0.00 93 1012.0
20220124082938 29 260 0.0 0.9 0.00 0.22 0.00 93 1012.0
20220124082431 29 260 0.0 0.9 0.00 0.22 0.00 93 1012.0
20220124081931 29 260 0.0 0.9 0.00 0.22 0.00 93 1011.9
20220124081421 29 260 0.0 0.9 0.00 0.22 0.00 93 1011.9
20220124080920 29 260 0.9 1.7 0.00 0.22 0.00 93 1011.9
20220124080409 29 260 0.9 1.7 0.00 0.22 0.00 93 1011.9
20220124075901 29 260 0.0 0.9 0.00 0.22 0.00 93 1011.9
20220124075357 29 260 0.0 0.9 0.00 0.22 0.00 93 1011.9
20220124074854 29 260 0.0 0.9 0.00 0.22 0.00 93 1011.9
20220124074350 29 260 0.9 0.9 0.00 0.22 0.00 93 1012.0
20220124073848 29 260 0.9 1.7 0.00 0.22 0.00 93 1011.8
20220124073334 29 260 0.9 1.7 0.00 0.22 0.00 93 1011.9
20220124072834 29 260 0.0 0.9 0.00 0.22 0.00 93 1011.8
20220124072332 29 260 0.0 0.9 0.00 0.22 0.00 93 1012.0
20220124071822 29 260 0.0 0.0 0.00 0.22 0.00 93 1011.9
20220124071315 29 260 0.0 0.0 0.00 0.22 0.00 93 1011.8
20220124070804 29 260 0.0 0.0 0.00 0.22 0.00 93 1011.9
20220124070255 29 260 0.0 0.9 0.00 0.22 0.00 93 1011.8
20220124065752 29 260 0.0 0.9 0.00 0.22 0.00 93 1011.9
20220124065246 29 260 0.0 0.9 0.00 0.22 0.00 93 1012.0
20220124064737 29 260 0.0 0.9 0.00 0.22 0.00 92 1012.1
20220124064232 29 260 0.0 0.9 0.00 0.22 0.00 92 1012.0
20220124063728 29 260 0.0 0.9 0.00 0.22 0.00 92 1012.1
20220124063218 29 260 0.0 0.9 0.00 0.22 0.00 92 1012.1
20220124062716 29 260 0.0 0.9 0.00 0.22 0.00 92 1012.1
20220124062206 29 260 0.9 0.9 0.00 0.22 0.00 92 1012.1
20220124061702 29 260 0.9 0.9 0.00 0.22 0.00 92 1012.0
20220124061154 29 260 0.9 0.9 0.00 0.22 0.00 92 1012.1
20220124060649 29 260 0.9 0.9 0.00 0.22 0.00 92 1012.1
20220124060143 30 260 0.9 0.9 0.00 0.22 0.00 92 1012.1
20220124055636 30 260 0.9 0.9 0.00 0.22 0.00 92 1012.0
20220124055131 30 260 0.0 0.9 0.00 0.22 0.00 92 1012.2
20220124054626 30 260 0.0 0.9 0.00 0.22 0.00 92 1012.2
20220124054120 30 260 0.0 0.9 0.00 0.22 0.00 92 1012.2
20220124053613 30 260 0.0 0.9 0.00 0.22 0.00 92 1012.3
20220124053107 30 260 0.0 0.9 0.00 0.22 0.00 91 1012.4
20220124052607 30 260 0.0 0.9 0.00 0.22 0.00 91 1012.4
20220124052104 30 260 0.0 0.9 0.00 0.22 0.00 91 1012.3
20220124051604 31 260 0.0 0.0 0.00 0.22 0.00 91 1012.5
20220124051105 31 260 0.0 0.9 0.00 0.22 0.00 91 1012.5
20220124050602 31 260 0.0 0.9 0.00 0.22 0.00 91 1012.4
20220124050101 31 260 0.0 0.9 0.00 0.22 0.00 91 1012.3
20220124045600 31 260 0.0 0.9 0.00 0.22 0.22 90 1012.4
20220124045105 31 260 0.0 0.9 0.00 0.22 0.22 90 1012.4
20220124044558 32 260 0.0 0.9 0.00 0.22 0.22 90 1012.3
20220124044057 32 260 0.0 0.9 0.00 0.22 0.22 90 1012.3
20220124043556 32 260 0.0 0.9 0.00 0.22 0.22 90 1012.4
20220124043052 32 260 0.9 2.6 0.00 0.22 0.22 90 1012.4
20220124042550 33 260 0.9 2.6 0.00 0.22 0.22 89 1012.5
20220124042048 33 287 0.9 1.7 0.00 0.22 0.22 90 1012.6
20220124041548 33 287 0.9 1.7 0.00 0.22 0.22 89 1012.5
20220124041045 33 287 0.9 1.7 0.00 0.22 0.22 90 1012.5
20220124040542 33 287 0.0 0.9 0.00 0.22 0.22 89 1012.6
20220124040044 33 287 0.0 0.9 0.00 0.22 0.22 89 1012.6
20220124035543 34 287 0.0 0.9 0.00 0.22 0.22 89 1012.4
20220124035044 34 287 0.0 0.9 0.00 0.22 0.22 89 1012.5
20220124034539 34 287 0.0 1.7 0.00 0.22 0.22 89 1012.4
20220124034032 34 287 0.9 3.5 0.00 0.22 0.22 89 1012.4
20220124033526 34 287 1.7 3.5 0.00 0.22 0.22 90 1012.4
20220124033021 34 276 1.7 3.5 0.00 0.22 0.22 90 1012.4
20220124032516 33 264 0.9 3.5 0.00 0.22 0.22 91 1012.4
20220124032008 33 286 0.9 2.6 0.00 0.22 0.22 92 1012.3
20220124031502 33 282 0.9 2.6 0.00 0.22 0.22 92 1012.3
20220124030956 33 294 0.9 1.7 0.00 0.22 0.22 93 1012.3
20220124030452 32 294 0.9 1.7 0.00 0.22 0.22 94 1012.4
20220124025944 32 266 0.0 1.7 0.00 0.22 0.22 94 1012.4
20220124025439 31 266 0.0 1.7 0.00 0.22 0.22 93 1012.4
20220124024932 30 266 0.0 0.9 0.00 0.22 0.22 93 1012.4
20220124024426 30 266 0.0 0.0 0.00 0.22 0.22 93 1012.2
20220124023919 30 266 0.0 0.0 0.00 0.22 0.22 93 1012.2
20220124023413 30 266 0.0 0.0 0.00 0.22 0.22 93 1012.4
20220124022913 29 266 0.0 0.0 0.00 0.22 0.22 92 1012.5
20220124022414 29 266 0.0 0.0 0.00 0.22 0.22 92 1012.5
20220124021910 29 266 0.0 0.0 0.00 0.22 0.22 92 1012.7
20220124021409 30 266 0.0 0.9 0.00 0.22 0.22 93 1012.6
20220124020908 30 266 0.0 0.9 0.00 0.22 0.22 92 1012.7
20220124020406 30 266 0.0 0.0 0.00 0.22 0.22 92 1012.8
20220124015906 30 266 0.0 0.0 0.00 0.22 0.22 92 1012.8
20220124015405 30 266 0.0 0.0 0.00 0.22 0.22 92 1012.8
20220124014903 30 266 0.0 0.0 0.00 0.22 0.22 92 1012.7
20220124014403 29 266 0.0 0.0 0.00 0.22 0.22 92 1012.8
20220124013903 29 266 0.0 0.0 0.00 0.22 0.22 92 1012.9
20220124013405 29 266 0.0 0.0 0.00 0.22 0.22 92 1012.9
20220124012901 30 266 0.0 0.9 0.00 0.22 0.22 92 1012.9
20220124012400 30 266 0.0 0.9 0.00 0.22 0.22 92 1013.0
20220124011902 30 266 0.0 0.9 0.00 0.22 0.22 92 1013.1
20220124011400 30 266 0.0 0.9 0.00 0.22 0.22 92 1013.2
20220124010859 30 266 0.0 0.0 0.00 0.22 0.22 91 1013.2
20220124010400 30 266 0.0 0.0 0.00 0.22 0.22 91 1013.3
20220124005901 30 266 0.9 1.7 0.00 0.22 0.22 92 1013.3
20220124005359 30 266 0.9 1.7 0.00 0.22 0.22 92 1013.3
20220124004901 30 266 0.9 1.7 0.00 0.22 0.22 91 1013.1
20220124004358 31 266 0.0 0.9 0.00 0.22 0.22 91 1013.1
20220124003855 31 266 0.0 0.0 0.00 0.22 0.22 91 1013.1
20220124003357 31 266 0.0 0.9 0.00 0.22 0.22 91 1013.1
20220124002856 31 266 0.0 0.9 0.00 0.22 0.22 91 1013.1
20220124002355 31 266 0.0 0.9 0.00 0.22 0.22 91 1013.0
20220124001856 31 266 0.0 0.9 0.00 0.22 0.22 91 1013.1
20220124001357 31 266 0.0 0.9 0.00 0.22 0.22 91 1013.0
20220124000856 31 266 0.0 0.9 0.00 0.22 0.22 90 1013.1
20220124000357 31 266 0.0 0.9 0.00 0.22 0.22 90 1012.9
20220123235854 32 266 0.0 0.9 0.00 0.22 0.22 90 1012.9
20220123235351 32 266 0.9 0.9 0.00 0.22 0.22 90 1013.1
20220123234851 32 266 0.9 0.9 0.00 0.22 0.22 90 1013.0
20220123234351 32 266 0.9 1.7 0.00 0.22 0.22 90 1012.9
20220123233852 33 266 1.7 1.7 0.00 0.22 0.22 89 1013.0
20220123233351 33 266 0.9 1.7 0.00 0.22 0.22 89 1012.9
20220123232851 33 266 0.0 1.7 0.00 0.22 0.22 88 1012.9
20220123232355 34 266 0.0 0.9 0.00 0.22 0.22 88 1012.9
20220123231854 34 266 0.0 0.9 0.00 0.22 0.22 88 1012.8
20220123231352 34 266 0.9 0.9 0.00 0.22 0.22 87 1012.8
20220123230852 35 266 0.9 0.9 0.00 0.22 0.22 86 1012.9
20220123230351 36 266 0.9 0.9 0.01 0.22 0.22 85 1012.8
20220123225852 36 266 0.9 1.7 0.01 0.22 0.22 85 1012.8
20220123225353 36 266 0.9 1.7 0.01 0.22 0.22 84 1012.8
20220123224851 37 266 0.9 1.7 0.01 0.22 0.22 82 1012.8
20220123224349 38 249 0.9 1.7 0.02 0.22 0.22 81 1012.7
20220123223853 38 249 0.9 2.6 0.02 0.22 0.22 80 1012.6
20220123223353 39 253 0.9 3.5 0.02 0.22 0.22 80 1012.8
20220123222849 39 235 1.7 4.3 0.03 0.22 0.22 79 1012.8
20220123222349 40 248 1.7 4.3 0.03 0.22 0.22 79 1012.9
20220123221848 40 239 1.7 3.5 0.03 0.22 0.22 77 1012.9
20220123221343 41 234 1.7 4.3 0.03 0.22 0.22 76 1012.9
20220123220836 42 224 2.6 5.2 0.03 0.22 0.22 75 1012.9
20220123220330 42 206 3.5 5.2 0.02 0.21 0.21 75 1013.0
20220123215825 42 258 3.5 6.1 0.02 0.21 0.21 74 1013.1
20220123215318 43 223 3.5 6.1 0.03 0.21 0.21 74 1013.0
20220123214819 43 175 2.6 6.1 0.03 0.21 0.21 75 1013.0
20220123214317 43 256 3.5 7.8 0.03 0.20 0.20 74 1013.2
20220123213815 44 209 3.5 7.8 0.04 0.20 0.20 74 1013.2
20220123213314 44 188 4.3 7.8 0.04 0.20 0.20 74 1013.2
20220123212813 44 249 4.3 7.8 0.04 0.19 0.19 74 1013.2
20220123212313 44 208 4.3 6.1 0.05 0.19 0.19 75 1013.1
20220123211813 44 239 3.5 7.8 0.05 0.19 0.19 75 1013.2
20220123211315 44 215 2.6 7.8 0.06 0.19 0.19 75 1013.2
20220123210815 45 191 3.5 7.8 0.07 0.19 0.19 75 1013.2
20220123210315 44 148 5.2 8.7 0.07 0.19 0.19 75 1013.2
20220123205813 44 269 5.2 8.7 0.08 0.19 0.19 70 1013.4
20220123205315 44 230 4.3 7.0 0.08 0.18 0.18 72 1013.3
20220123204815 44 251 3.5 7.0 0.09 0.18 0.18 73 1013.3
20220123204314 44 249 3.5 6.1 0.08 0.17 0.17 74 1013.2
20220123203815 44 239 3.5 6.1 0.08 0.16 0.16 73 1013.3
20220123203315 44 251 3.5 7.0 0.08 0.16 0.16 74 1013.3
20220123202816 44 246 4.3 7.0 0.08 0.15 0.15 74 1013.4
20220123202308 43 246 5.2 8.7 0.08 0.14 0.14 73 1013.5
20220123201802 43 256 5.2 8.7 0.08 0.14 0.14 72 1013.5
20220123201255 43 273 4.3 7.8 0.08 0.13 0.13 72 1013.7
20220123200750 43 227 3.5 7.0 0.08 0.12 0.12 74 1013.7
20220123200243 42 243 3.5 7.0 0.07 0.11 0.12 75 1013.8
20220123195737 42 245 3.5 5.2 0.08 0.11 0.11 76 1013.8
20220123195232 42 258 2.6 4.3 0.08 0.10 0.10 77 1013.8
20220123194725 42 238 1.7 3.5 0.08 0.09 0.09 79 1013.8
20220123194219 42 244 2.6 5.2 0.08 0.09 0.09 79 1013.8
20220123193715 41 259 2.6 5.2 0.08 0.08 0.08 78 1013.8
20220123193208 41 268 1.7 5.2 0.07 0.07 0.08 78 1014.0
20220123192702 41 291 1.7 5.2 0.07 0.07 0.07 78 1013.9
20220123192156 40 258 3.5 5.2 0.06 0.06 0.06 78 1014.1
20220123191650 40 269 1.7 5.2 0.05 0.05 0.06 79 1014.3
20220123191145 40 201 0.9 4.3 0.05 0.05 0.05 80 1014.5
20220123190637 40 158 1.7 3.5 0.04 0.04 0.04 81 1014.6
20220123190131 40 278 2.6 5.2 0.03 0.03 0.04 81 1014.6
20220123185626 39 286 3.5 5.2 0.03 0.03 0.03 81 1014.8
20220123185120 39 234 2.6 4.3 0.02 0.02 0.02 81 1014.8
20220123184613 39 245 2.6 6.1 0.01 0.01 0.01 82 1014.8
20220123184111 39 282 4.3 7.0 0.00 0.00 0.00 81 1014.8
20220123183601 38 255 3.5 7.0 0.00 0.00 0.00 81 1014.9
20220123183055 38 259 2.6 6.1 0.00 0.00 0.00 82 1015.0
20220123182550 38 246 2.6 6.1 0.00 0.00 0.00 82 1015.0
20220123182044 38 273 2.6 5.2 0.00 0.00 0.00 83 1015.2
20220123181538 38 265 2.6 5.2 0.00 0.00 0.00 83 1015.2
20220123181032 38 279 1.7 4.3 0.00 0.00 0.00 84 1015.1
20220123180525 38 322 0.9 4.3 0.00 0.00 0.00 84 1015.3
20220123180019 37 334 0.9 4.3 0.00 0.00 0.00 85 1015.4
20220123175513 37 331 1.7 4.3 0.00 0.00 0.00 85 1015.6
20220123175007 37 286 0.9 4.3 0.00 0.00 0.00 85 1015.8
20220123174501 37 317 0.0 2.6 0.00 0.00 0.00 85 1015.9
20220123173955 36 281 0.0 0.0 0.00 0.00 0.00 86 1016.0
20220123173450 36 275 0.0 0.0 0.00 0.00 0.00 86 1016.2
20220123172943 36 260 0.0 0.9 0.00 0.00 0.00 86 1016.3
20220123172437 36 316 0.0 0.0 0.00 0.00 0.00 86 1016.3
20220123171931 35 285 0.0 0.0 0.00 0.00 0.00 86 1016.6
20220123171427 36 347 0.0 0.0 0.00 0.00 0.00 87 1016.8
20220123170920 35 355 0.0 0.0 0.00 0.00 0.00 88 1016.8
20220123170413 35 341 0.0 0.0 0.00 0.00 0.00 87 1017.0
20220123165907 35 342 0.0 0.0 0.00 0.00 0.00 87 1017.1
20220123165401 35 283 0.0 0.0 0.00 0.00 0.00 88 1017.2
20220123164855 35 294 0.0 0.0 0.00 0.00 0.00 88 1017.3
20220123164350 35 345 0.0 0.0 0.00 0.00 0.00 88 1017.4
20220123163843 35 354 0.0 0.0 0.00 0.00 0.00 88 1017.5
20220123163337 34 357 0.0 0.0 0.00 0.00 0.00 87 1017.6
20220123162832 34 286 0.0 0.0 0.00 0.00 0.00 88 1017.8
20220123162329 34 282 0.0 0.0 0.00 0.00 0.00 88 1017.9
20220123161819 34 335 0.0 0.0 0.00 0.00 0.00 88 1017.9
20220123161313 34 24 0.0 0.0 0.00 0.00 0.00 88 1018.1
20220123160807 34 343 0.0 0.0 0.00 0.00 0.00 89 1018.3
20220123160302 34 47 0.0 0.0 0.00 0.00 0.00 89 1018.4
20220123155755 33 296 0.0 0.0 0.00 0.00 0.00 89 1018.5
20220123155250 33 321 0.0 0.0 0.00 0.00 0.00 88 1018.7
20220123154743 33 331 0.0 0.0 0.00 0.00 0.00 88 1018.7
20220123154238 33 344 0.0 0.0 0.00 0.00 0.00 88 1018.8
20220123153734 33 320 0.0 0.0 0.00 0.00 0.00 88 1018.9
20220123153226 33 276 0.0 0.0 0.00 0.00 0.00 88 1019.0
20220123152725 33 13 0.0 0.0 0.00 0.00 0.00 89 1019.1
20220123152224 33 13 0.0 0.0 0.00 0.00 0.00 88 1019.1
20220123151724 33 292 0.0 0.0 0.00 0.00 0.00 88 1019.2
20220123151221 33 0 0.0 1.7 0.00 0.00 0.00 89 1019.3
20220123150721 33 24 0.9 1.7 0.00 0.00 0.00 89 1019.3
20220123150221 33 342 0.9 2.6 0.00 0.00 0.00 89 1019.5
20220123145722 32 21 0.9 2.6 0.00 0.00 0.00 89 1019.6
20220123145221 32 313 0.0 1.7 0.00 0.00 0.00 89 1019.6
20220123144719 32 26 0.0 1.7 0.00 0.00 0.00 90 1019.7
20220123144218 32 356 0.0 1.7 0.00 0.00 0.00 89 1019.7
20220123143718 31 0 0.0 1.7 0.00 0.00 0.00 89 1019.8
20220123143218 32 336 0.9 2.6 0.00 0.00 0.00 90 1019.7
20220123142717 31 343 0.9 2.6 0.00 0.00 0.00 89 1019.7
20220123142219 31 5 0.0 0.0 0.00 0.00 0.00 90 1019.6
20220123141716 31 3 0.0 0.9 0.00 0.00 0.00 90 1019.4
20220123141214 31 5 0.0 0.9 0.00 0.00 0.00 90 1019.4
20220123140715 31 8 0.0 0.9 0.00 0.00 0.00 90 1019.4
20220123140214 30 14 0.0 0.0 0.00 0.00 0.00 90 1019.4
20220123135709 29 14 0.0 0.0 0.00 0.00 0.00 90 1019.3
20220123135201 29 276 0.0 0.0 0.00 0.00 0.00 91 1019.3
20220123134657 29 276 0.0 0.0 0.00 0.00 0.00 91 1019.3
20220123134150 28 276 0.0 0.0 0.00 0.00 0.00 91 1019.3
20220123133650 28 276 0.0 0.0 0.00 0.00 0.00 91 1019.3
20220123133147 27 276 0.0 0.0 0.00 0.00 0.00 91 1019.3
20220123132646 27 272 0.0 0.0 0.00 0.00 0.00 91 1019.4
20220123132147 27 272 0.0 0.0 0.00 0.00 0.00 92 1019.6
20220123131646 26 272 0.0 0.0 0.00 0.00 0.00 92 1019.8
20220123131144 25 272 0.0 0.0 0.00 0.00 0.00 92 1020.0
20220123130643 25 272 0.0 0.0 0.00 0.00 0.00 92 1020.1
20220123130138 24 272 0.0 0.0 0.00 0.00 0.00 92 1020.1
20220123125638 24 239 0.0 0.0 0.00 0.00 0.00 93 1020.2
20220123125138 23 239 0.0 0.0 0.00 0.00 0.00 93 1020.3
20220123124635 22 239 0.0 0.0 0.00 0.00 0.00 93 1020.2
20220123124136 21 239 0.0 0.0 0.00 0.00 0.00 93 1020.2
20220123123636 21 239 0.0 0.0 0.00 0.00 0.00 93 1020.2
20220123123134 21 239 0.0 0.0 0.00 0.00 0.00 93 1020.1
20220123122635 21 239 0.0 0.0 0.00 0.00 0.00 93 1020.0
20220123122134 21 239 0.0 0.0 0.00 0.00 0.00 93 1020.1
20220123121630 21 239 0.0 0.0 0.00 0.00 0.00 93 1020.1
20220123121131 21 239 0.0 0.0 0.00 0.00 0.00 93 1020.1
20220123120629 21 239 0.0 0.0 0.00 0.00 0.00 93 1019.9
20220123120130 20 239 0.0 0.0 0.00 0.00 0.00 93 1019.9
20220123115628 21 239 0.0 0.0 0.00 0.00 0.00 93 1020.0
20220123115129 20 239 0.0 0.0 0.00 0.00 0.00 93 1019.9
20220123114628 20 239 0.0 0.0 0.00 0.00 0.00 93 1019.9
20220123114129 20 239 0.0 0.0 0.00 0.00 0.00 93 1019.9
20220123113630 20 239 0.0 0.0 0.00 0.00 0.00 93 1019.8
20220123113125 20 239 0.0 0.0 0.00 0.00 0.00 92 1019.7
20220123112624 20 239 0.0 0.0 0.00 0.00 0.00 93 1019.8
20220123112125 21 239 0.0 0.0 0.00 0.00 0.00 93 1019.8
20220123111625 21 239 0.0 0.0 0.00 0.00 0.00 93 1019.9
20220123111126 21 239 0.0 0.0 0.00 0.00 0.00 93 1019.9
20220123110626 21 239 0.0 0.0 0.00 0.00 0.00 93 1019.9
20220123110124 21 239 0.0 0.0 0.00 0.00 0.00 93 1019.9
20220123105627 21 239 0.0 0.0 0.00 0.00 0.00 93 1020.1
20220123105127 21 239 0.0 0.0 0.00 0.00 0.00 93 1020.2
20220123104620 21 239 0.0 0.0 0.00 0.00 0.00 93 1020.2